FENGYUN 1C DEB, 30806

Orbit data source: Space-Track

FENGYUN 1C DEB, 30806 is space debris in SSO originally from a launch on Mon, 10 May 1999 UTC launched from the Taiyaun Space Center, China (TSC). Fengyun 1C debris stems from the Chinese weather satellite Fengyun-1C, which was intentionally destroyed by a Chinese anti-satellite missile in 2007. This event dramatically increased the amount of space debris, with thousands of trackable fragments posing hazards to satellites and human spaceflight. The Fengyun 1C debris cloud has become a focal point in discussions about space sustainability and the need for international regulations to prevent the creation of new debris.

Loading next visibility...
Identifier
30806, 1999-025AUQ
Orbit
SSO
Country
Flag of CNCN / PRC
Related business
Manufacturer
Unknown
Mission
Spacecraft
Bus & Motor
Unknown
Mass
Unknown
Launch date (UTC)
1999-05-10 (27 years ago)
Launch vehicle
Unknown
Launch site
Taiyaun Space Center, China (TSC)
Object type
Payload
Rocket body
Debris
Shape & HBR
Unknown shape, 0.1 m
Radar Cross Section
Small (<0.1 m²)

Expand to show TLE details & history
Last TLE update: 1 day ago

TLE from 1 day ago
0 FENGYUN 1C DEB
1 30806U 99025AUQ 26122.85874905  .00001203  00000-0  10804-2 0  9992
2 30806  99.0212 146.0159 0269342 118.6918  57.7764 13.70704927956284
Epoch: 2026-05-02T20:36Z
TLE epoch observation values (Epoch: 2026-05-02T20:36:35.917Z)
Latitude
0.75341°
Longitude
156.21462°
Altitude
897.754 km
Speed
7.454 km/s
True Right ascension
21h 44m 32s
True Declination
0° 44' 56"
Sunlit
Object was in daylight at epoch
Visualization orbit readout
Latitude
Unknown
Longitude
Unknown
Altitude
Unknown
Speed
Unknown
Apparent Right ascension
Unknown
Apparent Declination
Unknown
Sunlit
N/A
Visualization observer readout
Local Sidereal Time
15:48:05
Azimuth
Unknown
Elevation
Unknown
Doppler factor
Unknown
Orbital elements
Apogee altitude
1,192.848 km
Perigee altitude
795.708 km
Semi-major axis
7,372.415 km
Eccentricity
0.02693
Inclination
99.0212°
RAAN
146.0159°
Arg. of periapsis
118.6918°
True anomaly
60.43418°
Mean anomaly
57.7764°
Eccentric anomaly
59.10059°
Mean motion
3.42869 °/min
Orbital period
105 mins
BSTAR
0.0010804
Loading maneuver chart data...
Computing Atmospheric mass density...
Loading historical data...
Loading historical data...
Loading historical data...
Loading historical data...
Loading historical data...
Loading historical data...
Loading historical data...

Documentation

Showing up to 5 results
|